Back to catalog

COSMOS 2251 DEB

AliveLEO
NORAD 34990·DEBRIS·🇷🇺 Russia

Launched Jun 16, 1993 from Plesetsk Cosmodrome

Loading…

Next Passes (next 24 hours)

TLE

FreshSource: Space-Track

Epoch: Sep 13, 2026, 06:07 UTC

1 34990U 93036AFN 26256.25488936  .00000631  00000-0  19621-3 0  9994
2 34990  74.0417 102.1534 0015364 102.5489 257.7387 14.42958014913059

Track COSMOS 2251 DEB in real time with AllMySat

Download on the App Store